Temperature
16 16 16 15 15 15 15 15 15 14 13 13 13 13 13 13 13 13 13 13 13 13 13 13 13 12 12 12 12 12 12 12 12 12 12 12 11 11
16 16 16 15 15 15 15 15 15 14 14 13 13 13 13 13 13 13 13 13 12 12 12 12 12 12 12 12 12 12 12 12 12 11 11 11 11 11
16 15 15 15 15 15 15 14 14 14 14 13 13 13 13 13 12 12 12 12 12 12 12 12 12 12 12 12 11 11 11 11 11 11 11 11 11 11
16 15 15 15 15 15 15 14 14 14 14 14 13 13 13 12 12 12 12 12 12 12 12 12 11 11 11 11 11 11 11 11 11 11 11 10 10 10
15 15 15 15 15 15 15 14 14 14 14 14 13 13 13 12 12 12 12 12 12 11 11 11 11 11 11 11 11 11 10 10 10 10 10 10 10 10
15 15 15 15 15 15 14 14 14 14 14 13 13 13 13 12 12 12 12 11 11 11 11 11 11 11 11 10 10 10 10 10 10 10 10 9 9 9
15 15 15 15 15 14 14 14 14 14 13 13 13 13 12 12 12 12 11 11 11 11 11 11 11 10 10 10 10 10 10 10 10 9 9 9 9 9
15 15 14 14 14 14 14 14 13 13 13 13 13 12 12 12 12 11 11 11 11 11 10 10 10 10 10 10 10 10 10 9 9 9 9 9 9 8
14 14 14 14 14 14 14 13 13 13 13 13 13 12 12 12 11 11 11 11 11 11 10 10 10 10 10 10 10 9 9 9 9 9 9 9 8 8
14 14 13 13 13 13 13 13 13 13 12 12 12 12 12 12 11 11 11 11 11 10 10 10 10 10 10 10 9 9 9 9 9 9 8 8 8 8
13 13 13 13 13 13 13 12 12 12 12 12 12 12 11 11 11 11 11 11 10 10 10 10 10 10 10 10 9 9 9 9 9 9 8 8 8 8
13 13 13 13 12 12 12 12 12 12 12 12 11 11 11 11 11 11 11 10 10 10 10 10 10 10 9 10 9 9 9 9 9 8 8 8 8 8
13 13 13 12 12 12 12 11 11 11 11 11 11 11 11 11 11 11 10 10 10 10 10 10 10 10 9 9 9 9 9 9 9 9 8 8 8 8
13 13 12 12 12 11 11 11 11 11 11 11 11 11 11 10 10 10 10 10 10 10 10 10 9 9 9 9 9 9 9 9 9 8 8 8 8 8
12 12 12 12 11 11 11 11 11 10 10 10 10 10 10 10 10 10 10 10 10 10 10 9 9 9 9 9 9 9 9 9 9 8 8 8 8 8
12 12 12 12 11 11 11 11 10 10 10 10 10 10 10 10 10 10 10 10 10 10 10 9 9 9 9 9 9 9 9 9 8 8 8 8 8 8
12 12 12 12 11 11 11 11 10 10 10 10 10 10 10 10 10 9 9 9 9 9 9 9 9 9 9 9 9 9 9 8 8 8 8 8 8 8
12 12 12 11 11 11 11 11 10 10 10 10 10 10 10 10 9 9 9 9 9 9 9 9 9 9 9 9 9 9 8 8 8 8 8 8 8 7
12 12 12 12 11 11 11 11 10 10 10 10 10 10 10 9 9 9 9 9 9 9 9 9 9 9 8 8 9 8 8 8 8 8 7 7 7 7
12 12 12 11 11 11 11 11 10 10 10 10 10 10 9 9 9 9 9 9 9 9 9 9 9 8 8 8 8 8 8 8 8 7 7 7 7 7
12 12 12 11 11 11 11 11 10 10 10 10 10 9 9 9 9 9 9 8 8 8 8 8 8 8 8 8 8 8 8 8 7 7 7 7 6 6
12 12 12 11 11 11 11 10 10 10 10 9 9 9 9 9 9 8 8 8 8 8 8 8 8 8 8 7 7 7 7 7 7 7 7 6 6 6
12 12 12 11 11 11 11 10 10 10 9 9 9 9 9 9 8 8 8 8 8 8 8 8 8 7 7 7 7 7 7 7 6 6 6 6 6 6
Wind_Speed
1 1 1 1 2 2 3 4 3 2 1 0 0 1 2 3 4 5 6 7 8 9 9 9 8 9 9 9 8 8 8 7 7 6 6 5 4 3
1 1 1 1 2 2 3 2 2 3 2 1 1 0 1 3 4 4 5 6 8 8 8 9 9 9 9 8 8 8 8 8 7 7 7 6 6 5
1 2 1 1 2 2 2 2 2 2 3 1 1 1 2 2 3 4 4 5 5 6 7 7 8 8 8 8 8 8 8 7 7 7 6 6 5 5
1 1 1 1 2 2 2 2 2 2 3 3 2 1 1 1 2 2 3 3 4 5 6 6 7 7 7 7 7 7 8 8 8 7 7 6 6 6
1 1 1 2 2 1 2 2 2 3 3 4 2 1 1 1 2 2 2 2 2 3 4 5 5 6 6 6 6 6 6 7 7 7 7 7 7 6
2 2 2 2 2 2 2 2 3 4 4 4 3 2 1 1 2 2 1 1 1 2 3 3 3 4 4 4 4 4 4 4 5 5 5 5 5 5
2 2 2 2 3 2 3 3 4 4 4 4 3 2 2 2 2 1 1 0 1 1 1 2 2 2 2 1 1 1 1 2 2 2 2 2 3 3
2 2 2 3 3 4 4 4 5 5 5 4 3 3 3 3 2 3 2 1 0 0 0 1 1 0 1 0 1 1 2 2 1 1 1 0 0 1
2 1 2 2 3 3 4 5 4 3 4 4 4 4 4 5 4 4 3 2 2 1 1 0 0 1 2 2 2 2 3 3 3 4 3 3 2 2
2 1 1 1 2 3 3 3 2 1 2 3 3 4 4 5 6 5 4 2 1 1 2 1 1 2 2 3 4 4 5 5 5 5 5 5 4 4
2 1 1 1 2 4 4 3 2 1 1 1 2 2 3 6 7 4 4 3 1 1 2 2 1 2 2 3 5 6 7 7 7 7 7 6 6 5
1 1 0 1 2 3 4 3 2 1 0 1 1 1 1 3 7 6 5 4 2 2 3 3 2 1 2 2 3 3 5 7 8 8 8 8 7 5
1 1 1 1 3 3 3 3 3 2 1 1 0 1 0 1 2 4 5 4 4 3 3 4 2 2 2 2 2 2 3 3 4 5 7 8 7 6
3 2 2 2 3 3 2 2 3 2 1 1 0 1 1 2 2 3 5 5 5 5 5 5 3 3 3 3 3 2 2 3 3 3 4 5 6 7
3 3 3 3 3 2 2 3 2 2 1 1 2 2 2 2 2 1 2 3 4 5 5 6 5 4 4 4 3 2 2 2 3 3 3 3 3 3
2 2 3 3 2 1 1 1 1 2 2 3 3 3 2 1 1 1 2 2 2 3 3 6 7 5 4 4 4 4 3 3 2 3 3 3 4 5
3 1 1 1 1 1 1 2 2 2 2 3 3 3 2 2 2 2 2 2 3 3 3 2 3 5 6 4 4 4 4 4 3 3 2 3 4 5
5 3 3 4 4 4 3 3 3 3 3 4 4 4 4 4 3 2 2 3 4 4 4 2 2 1 1 3 6 5 4 4 3 3 3 4 5 5
5 5 5 5 5 5 4 4 4 4 3 4 4 4 4 4 3 3 3 3 4 4 4 3 3 3 4 5 3 7 5 4 3 3 3 4 5 5
6 6 6 5 5 5 5 5 4 3 3 4 4 4 4 4 4 4 4 4 4 4 4 3 4 5 5 5 4 3 6 5 4 4 3 3 4 5
7 6 6 6 6 5 5 4 4 4 4 4 4 4 4 3 4 4 4 5 4 4 5 5 5 5 3 2 3 3 3 6 7 4 3 3 3 3
6 6 6 6 5 5 5 4 4 4 4 4 4 4 3 4 5 5 4 4 4 5 5 4 2 2 3 4 5 4 3 2 3 6 7 6 3 3
7 6 6 6 5 5 5 5 6 5 4 4 4 4 4 4 5 5 4 4 4 4 4 3 2 3 3 4 4 4 4 3 2 2 3 6 9 10
Wind_Direction
101 106 114 135 148 154 154 160 157 163 199 277 7 14 66 73 66 69 69 69 69 68 69 70 70 71 71 72 75 76 78 79 76 71 66 61 56 55
86 96 93 115 130 138 155 162 162 159 162 173 192 68 90 96 81 78 76 76 72 71 70 69 70 70 70 71 72 74 75 75 76 74 72 69 65 68
70 99 94 111 133 136 144 146 137 139 151 142 108 85 99 91 74 80 80 74 71 70 74 72 71 71 70 69 71 73 75 76 76 77 77 75 73 73
67 85 84 113 109 132 141 143 145 143 151 152 134 114 106 116 96 84 79 80 79 70 70 70 70 71 68 68 71 73 74 75 73 71 73 72 73 74
88 103 104 110 108 118 132 136 137 129 127 140 137 118 105 113 105 96 81 57 80 72 70 68 71 70 68 66 70 75 74 73 75 73 69 68 66 64
72 89 106 121 135 140 139 137 128 122 122 127 127 124 124 125 128 125 98 53 53 52 54 58 68 69 64 65 73 78 82 83 80 78 74 72 69 63
61 67 99 115 128 137 139 144 139 134 135 137 138 137 146 149 164 169 159 117 39 30 44 30 44 47 45 46 62 88 125 127 108 92 83 78 66 53
76 48 54 76 92 99 111 132 144 150 158 156 166 175 190 189 169 164 158 151 222 40 144 9 61 27 343 329 267 220 209 216 225 227 220 229 1 10
91 64 56 57 74 92 96 96 105 125 153 165 176 193 193 193 175 172 180 183 200 174 157 242 264 252 260 248 246 232 235 242 246 245 243 245 255 267
85 93 89 59 74 108 112 98 92 103 169 182 187 203 206 192 187 186 181 170 163 167 174 208 243 246 255 253 252 243 242 243 245 244 244 247 254 262
55 67 110 127 121 121 119 115 90 22 71 130 187 209 201 187 173 158 161 169 207 215 190 201 232 246 252 251 253 248 246 248 248 248 247 247 250 256
40 26 55 169 164 148 143 146 158 248 312 28 29 31 169 181 181 185 184 186 195 218 197 194 207 214 257 248 251 252 247 250 250 251 251 251 246 245
199 244 274 209 184 178 168 176 202 199 172 161 1 2 28 191 201 202 198 191 195 220 197 186 200 203 231 268 269 253 244 244 247 254 257 255 246 230
203 214 220 190 181 181 181 189 181 161 143 134 173 282 280 263 242 222 214 213 219 227 208 191 207 207 215 248 267 269 255 243 238 251 259 263 252 243
209 205 199 183 175 185 204 192 173 164 164 197 240 256 261 264 268 243 230 225 237 240 222 211 215 214 215 231 247 257 267 261 242 245 251 247 243 237
210 204 188 175 167 179 208 207 201 201 205 224 242 255 267 264 264 256 245 232 247 264 243 220 215 210 221 230 232 249 250 251 254 246 247 254 252 240
175 148 145 163 200 220 237 242 233 219 225 239 240 251 258 261 265 256 239 232 233 256 267 248 229 226 227 223 232 244 249 253 252 243 237 257 257 248
159 191 206 211 219 224 228 237 235 234 236 237 237 237 243 247 253 250 237 237 241 248 253 244 205 199 236 244 223 235 244 251 255 239 228 246 264 263
184 213 218 221 226 229 229 232 237 240 236 234 237 238 238 242 244 246 245 248 255 254 251 234 213 212 243 265 249 213 225 250 254 252 244 243 256 269
214 221 226 227 227 229 231 235 237 238 234 237 239 239 235 237 242 244 242 244 249 253 256 246 230 224 232 248 258 252 223 226 236 248 258 263 272 278
217 223 227 228 228 227 229 228 229 232 234 232 236 237 236 236 242 245 244 241 243 252 254 256 250 234 230 218 249 262 256 230 227 236 252 270 284 286
225 226 227 226 224 223 223 224 228 233 235 234 236 236 235 235 240 243 241 241 242 247 255 262 256 214 208 227 249 264 272 278 261 248 241 235 254 261
225 225 224 221 219 218 218 220 223 229 231 232 233 234 233 238 243 240 238 241 246 252 259 261 258 244 239 237 249 260 265 276 288 287 282 266 256 261
Height
1541 1540 1540 1540 1540 1540 1541 1542 1542 1542 1543 1544 1544 1544 1543 1543 1543 1543 1542 1542 1542 1542 1542 1542 1541 1541 1541 1541 1541 1541 1541 1541 1541 1542 1542 1541 1541 1541
1540 1539 1539 1539 1539 1540 1540 1540 1541 1542 1542 1542 1543 1543 1543 1543 1543 1543 1543 1543 1542 1542 1542 1542 1541 1541 1541 1541 1541 1541 1541 1540 1540 1540 1540 1540 1540 1539
1539 1538 1538 1538 1539 1539 1539 1540 1540 1540 1540 1541 1542 1542 1543 1543 1543 1543 1543 1543 1542 1542 1542 1542 1541 1541 1541 1541 1540 1540 1540 1540 1540 1539 1539 1539 1538 1538
1538 1538 1537 1538 1538 1538 1538 1538 1539 1539 1539 1540 1541 1541 1542 1542 1542 1542 1542 1542 1542 1542 1542 1542 1542 1541 1541 1541 1540 1540 1540 1539 1539 1538 1538 1538 1537 1537
1537 1537 1537 1537 1537 1537 1537 1538 1538 1538 1538 1539 1539 1540 1541 1542 1542 1542 1542 1542 1542 1542 1542 1542 1542 1541 1541 1541 1540 1540 1540 1539 1539 1538 1537 1537 1537 1536
1536 1536 1536 1536 1536 1536 1537 1537 1537 1537 1537 1538 1538 1539 1540 1540 1541 1541 1542 1542 1542 1542 1542 1542 1542 1541 1541 1541 1541 1540 1539 1539 1538 1538 1537 1537 1536 1536
1536 1536 1535 1536 1536 1536 1536 1536 1536 1536 1536 1537 1538 1538 1539 1539 1540 1541 1541 1542 1542 1542 1542 1542 1541 1541 1541 1540 1540 1540 1539 1538 1538 1537 1536 1536 1535 1535
1535 1535 1535 1535 1535 1535 1535 1535 1536 1536 1536 1536 1537 1537 1538 1539 1539 1540 1540 1541 1541 1542 1541 1541 1541 1540 1540 1540 1540 1539 1538 1537 1537 1536 1536 1535 1534 1533
1535 1535 1535 1534 1534 1534 1534 1535 1535 1535 1536 1536 1536 1536 1537 1537 1538 1538 1539 1539 1540 1540 1540 1540 1540 1540 1540 1539 1539 1538 1537 1536 1536 1535 1535 1534 1533 1532
1534 1534 1534 1534 1534 1534 1534 1534 1534 1534 1534 1534 1535 1535 1536 1536 1537 1537 1538 1538 1538 1538 1539 1538 1538 1538 1538 1538 1537 1537 1536 1535 1534 1534 1533 1532 1532 1531
1534 1533 1533 1533 1533 1533 1533 1532 1533 1533 1533 1533 1533 1534 1534 1534 1535 1535 1535 1535 1535 1536 1536 1536 1536 1536 1536 1536 1535 1535 1534 1533 1533 1532 1531 1531 1530 1529
1533 1533 1532 1532 1532 1532 1532 1531 1531 1531 1532 1532 1532 1532 1532 1532 1532 1532 1533 1533 1533 1533 1533 1534 1534 1534 1533 1533 1533 1533 1532 1531 1531 1530 1529 1529 1528 1527
1531 1531 1531 1531 1531 1530 1530 1530 1530 1530 1530 1530 1530 1530 1530 1530 1530 1530 1530 1530 1530 1530 1531 1531 1531 1531 1531 1530 1530 1530 1529 1529 1528 1527 1527 1526 1525 1524
1529 1529 1529 1529 1529 1529 1528 1528 1528 1528 1528 1528 1528 1527 1527 1527 1527 1527 1527 1527 1527 1527 1528 1528 1527 1527 1527 1526 1526 1526 1526 1525 1525 1524 1524 1523 1523 1522
1527 1527 1527 1527 1526 1527 1526 1526 1526 1526 1526 1526 1525 1525 1525 1525 1525 1524 1524 1524 1524 1524 1524 1524 1524 1524 1524 1523 1523 1523 1522 1522 1521 1521 1520 1520 1519 1518
1524 1524 1524 1524 1524 1524 1524 1524 1524 1523 1523 1523 1523 1523 1522 1522 1522 1522 1521 1521 1521 1521 1521 1520 1520 1520 1519 1520 1519 1518 1518 1518 1518 1517 1517 1516 1515 1514
1521 1521 1521 1521 1521 1521 1521 1521 1521 1520 1520 1520 1520 1519 1519 1519 1519 1519 1518 1518 1517 1517 1517 1517 1517 1516 1516 1516 1515 1515 1515 1514 1514 1513 1512 1512 1511 1510
1518 1517 1517 1517 1517 1517 1517 1517 1517 1517 1517 1517 1516 1516 1515 1515 1515 1515 1514 1514 1514 1513 1513 1513 1513 1513 1512 1512 1512 1511 1511 1510 1510 1509 1508 1507 1506 1506
1514 1513 1513 1514 1514 1514 1513 1513 1513 1513 1513 1513 1512 1512 1511 1511 1511 1511 1510 1510 1510 1509 1509 1509 1509 1508 1508 1508 1508 1508 1507 1506 1505 1504 1504 1503 1502 1502
1509 1509 1509 1509 1510 1510 1509 1509 1509 1508 1508 1508 1508 1508 1507 1507 1507 1506 1506 1506 1506 1505 1505 1505 1505 1504 1504 1504 1503 1503 1503 1502 1501 1500 1500 1499 1498 1498
1504 1504 1505 1505 1505 1505 1505 1505 1505 1504 1504 1504 1504 1503 1503 1503 1502 1502 1502 1502 1502 1501 1501 1501 1501 1501 1500 1500 1499 1498 1498 1498 1498 1497 1496 1495 1493 1493
1500 1499 1500 1500 1501 1501 1500 1500 1500 1500 1499 1499 1499 1499 1499 1499 1498 1498 1498 1497 1497 1497 1497 1497 1497 1496 1496 1495 1494 1494 1494 1494 1493 1493 1492 1491 1490 1488
1494 1495 1495 1495 1495 1496 1495 1495 1495 1495 1494 1494 1494 1494 1494 1494 1493 1493 1493 1493 1493 1493 1493 1492 1492 1492 1491 1491 1490 1490 1489 1489 1488 1488 1488 1487 1486 1485